Lid_Strength_Index
2 2 2 2 2 2 2 2 1 2 2 2 3 4 4 4 4 6 9 7 6 4 5 6 6 5 4 5 3 4 9 10 9 9 7 5 6 4 4 5 4 4 4 3 2
2 2 2 2 2 2 2 2 2 2 2 2 3 3 3 5 7 9 7 4 5 5 8 8 8 7 6 5 4 6 9 9 6 6 6 5 5 5 5 5 6 5 4 2 2
2 2 2 2 2 2 2 2 2 2 2 3 3 2 3 5 9 10 5 5 5 6 7 6 7 8 8 6 6 6 9 7 6 5 5 5 6 5 6 6 5 6 5 4 4
3 3 2 2 2 2 2 2 2 2 2 3 2 3 3 8 14 9 5 6 6 8 7 7 8 10 9 8 6 9 6 6 6 5 5 6 5 5 6 5 4 4 3 4 4
3 3 3 3 2 2 1 2 2 2 3 3 3 3 6 11 10 6 4 6 8 9 9 8 9 10 11 9 7 8 7 6 5 5 5 5 6 6 5 4 4 3 4 4 4
3 3 3 2 2 2 2 2 3 3 3 3 3 4 9 13 6 5 6 7 8 9 10 9 9 8 10 10 9 8 8 7 6 6 5 7 6 6 5 4 4 4 4 4 4
3 3 3 2 2 3 3 3 3 3 3 3 3 6 9 11 5 5 6 7 8 8 10 10 8 9 9 12 9 9 11 8 7 7 7 6 8 8 4 4 4 4 4 3 3
3 3 3 2 3 3 3 3 3 3 3 3 4 6 10 5 5 6 6 7 6 7 8 8 7 9 10 9 10 12 10 12 8 7 7 7 12 7 4 5 5 4 4 4 3
3 3 3 2 3 4 3 4 4 3 5 3 7 7 10 3 6 4 5 7 7 7 6 6 7 10 11 13 15 13 16 14 12 7 7 8 10 7 5 5 6 5 4 4 4
3 2 2 2 3 4 4 5 6 4 5 5 6 10 7 8 5 4 3 4 7 8 9 8 9 11 11 13 18 16 16 15 14 10 9 10 10 7 5 5 6 5 5 4 4
2 2 2 2 3 4 4 6 8 9 8 10 10 10 7 4 2 4 3 5 6 8 12 10 13 14 12 11 13 14 15 15 13 10 13 12 11 10 7 6 6 5 5 5 4
2 2 2 3 4 4 5 9 9 7 11 9 9 8 6 4 6 4 2 6 8 11 10 11 14 12 12 13 13 14 15 15 13 12 13 14 14 11 9 8 6 6 6 5 4
2 2 2 3 5 5 7 7 5 6 10 11 9 8 8 6 8 6 3 5 8 10 11 13 12 10 12 14 15 14 15 15 15 14 13 14 16 15 12 10 9 8 6 5 5
2 3 4 5 6 6 8 6 5 6 12 14 11 9 8 7 9 4 2 5 7 10 10 11 11 12 12 13 14 16 12 14 14 15 19 13 20 16 14 13 11 9 8 6 5
2 4 4 4 6 7 7 5 5 7 19 13 12 7 8 10 9 7 3 4 8 9 9 11 11 12 13 13 12 14 12 12 12 14 15 16 18 16 13 14 12 11 9 7 6
2 4 5 5 5 6 5 6 8 13 19 15 12 12 11 10 10 8 8 5 5 7 7 8 6 9 10 10 11 11 12 13 13 13 18 17 16 18 15 13 12 11 10 8 7
3 5 5 5 7 5 6 8 13 17 15 15 15 13 13 13 12 11 11 11 11 13 12 9 9 7 7 10 9 11 14 18 19 19 20 14 15 17 12 11 11 11 9 8 7
4 5 6 6 5 6 7 11 18 18 16 14 14 13 16 14 13 12 13 13 11 10 12 13 14 9 7 9 11 11 12 17 21 20 18 13 17 16 10 9 9 9 8 8 8
5 5 5 5 6 6 10 14 15 15 14 15 14 16 15 16 14 14 13 14 11 10 13 13 13 8 7 7 8 11 13 10 14 16 19 17 14 12 9 11 9 8 7 7 7
6 7 7 6 6 7 13 14 14 13 13 13 17 16 17 16 16 15 14 12 12 9 8 11 15 9 8 7 7 9 8 14 13 20 21 18 17 16 12 11 9 9 9 8 6
7 10 8 6 7 11 14 13 15 14 12 14 15 16 15 16 15 15 14 12 11 10 9 10 12 12 9 10 11 10 13 12 12 14 19 19 17 11 11 10 10 9 8 8 7
8 14 9 7 12 13 14 15 15 14 12 13 13 14 15 15 15 15 15 13 10 9 13 10 12 15 13 9 7 8 11 11 17 16 14 14 16 10 10 10 9 9 9 8 7
12 13 9 9 14 14 16 16 14 14 13 14 14 13 13 15 17 14 13 11 10 10 12 10 13 17 14 11 10 11 10 10 11 12 16 18 15 8 9 9 9 9 9 8 8
11 15 13 12 15 15 16 15 16 13 13 13 13 12 14 15 13 15 14 12 10 10 9 10 13 15 17 13 11 13 12 11 12 16 15 14 13 11 10 9 8 8 8 8 8
11 14 16 15 15 15 16 16 17 17 14 13 14 14 15 17 16 16 14 13 11 10 10 11 15 13 12 11 11 12 14 13 14 13 15 13 13 10 9 9 9 7 7 7 7
13 14 16 18 17 16 17 16 16 15 15 16 16 14 14 16 15 16 15 14 14 12 12 10 14 13 15 12 12 14 13 13 12 12 12 12 12 9 7 7 7 7 8 8 8
10 13 13 16 17 17 15 16 17 15 14 13 14 14 15 14 12 11 11 11 12 13 13 13 14 15 17 14 14 18 14 14 13 11 11 13 10 7 7 7 6 6 7 7 7